Back to catalog

TEVEL2-1

AliveAmateur RadioSSO
NORAD 63217·PAYLOAD·🇮🇱 Israel

Launched Mar 15, 2025 from Vandenberg Space Force Base

Loading…

Next Passes (next 24 hours)

TLE

FreshSource: AMSAT

Epoch: Sep 13, 2026, 16:33 UTC

1 63217U 25052H   26256.69026919  .00014307  00000-0  40231-3 0  9994
2 63217  97.3738 152.7684 0003718 133.3229 226.8326 15.36601017 83676

Track TEVEL2-1 in real time with AllMySat

Download on the App Store